Flag for U.S.A. Weather past 2 weeks in Evansville, Indiana, U.S.A.

Now
23 °F

Sunny.


Feels Like: 9 °F
Forecast: 9 / 24 °F
Wind: 18 mph from Northwest

Location: Evansville Regional Airport

Current Time: Mar 5, 2015 at 1:24:55 PM

Latest Report: Mar 5, 2015 at 12:54 PM


Visibility: 10 mi

Pressure: 30.52 "Hg

Humidity: 46%

Dew point: 5 °F

Location of EvansvilleLocation

Historic Weather in Evansville — Graph

°F

Evansville temperature yesterday

Maximum temperature yesterday: 43 °F (at 12:54 AM)
Minimum temperature yesterday: 19 °F (at 7:54 PM)
Average temperature yesterday: 30 °F

Past Weeks' High & Low Weather Summary

 TemperatureHumidityPressure
High52 °F (Mar 3, 3:54 PM)93% (Mar 3, 11:54 AM)30.73 "Hg (Mar 3, 11:54 AM)
Low-5 °F (Feb 20, 2:54 AM)37% (Feb 19, 11:54 AM)29.83 "Hg (Mar 3, 3:02 PM)
Average25 °F67%30.30 "Hg
* Reported Feb 18 11:54 AM — Mar 5 11:54 AM, Evansville, Weather by CustomWeather, © 2015

Note: Actual official high and low records may vary slightly from our data, if they occured in-between our weather recording intervals... More about our weather records

Advertising

Evansville weather history for previous 24 hours

 ConditionsComfort  
Time TempWeatherWind HumidityBarometerVisibility
11:54 AM
Thu, Mar 5
23 °FSunny.14 mph50%30.52 "Hg10 mi
10:54 AM24 °FSunny.13 mph48%30.50 "Hg10 mi
9:54 AM21 °FSunny.12 mph52%30.48 "Hg10 mi
8:54 AM20 °FSunny.9 mph60%30.46 "Hg10 mi
7:54 AM19 °FOvercast.13 mph59%30.44 "Hg10 mi
6:54 AM20 °FPartly sunny.7 mph60%30.45 "Hg10 mi
5:54 AM20 °FPartly sunny.9 mph57%30.39 "Hg10 mi
4:54 AM20 °FMostly cloudy.12 mph55%30.39 "Hg10 mi
3:54 AM20 °FMostly cloudy.12 mph55%30.35 "Hg10 mi
2:54 AM20 °FOvercast.12 mph55%30.34 "Hg10 mi
1:54 AM20 °FOvercast.13 mph57%30.35 "Hg10 mi
12:54 AM20 °FOvercast.10 mph57%30.34 "Hg10 mi
11:54 PM
Wed, Mar 4
21 °FOvercast.10 mph57%30.34 "Hg10 mi
10:54 PM21 °FOvercast.12 mph57%30.32 "Hg10 mi
10:03 PM20 °FLight snow. Overcast.3 mph78%30.31 "Hg5 mi
9:04 PM19 °FIce fog.13 mph85%30.31 "Hg1 mi
8:54 PM20 °FIce fog.10 mph82%30.32 "Hg1 mi
7:54 PM19 °FIce fog.12 mph85%30.30 "Hg1 mi
7:00 PM20 °FLight snow. Ice fog.15 mph85%30.27 "Hg1 mi
5:54 PM21 °FLight snow. Ice fog.9 mph81%30.24 "Hg1 mi
4:54 PM22 °FHeavy snow. Ice fog.12 mph82%30.21 "Hg0 mi
4:01 PM23 °FLight snow. Overcast.13 mph78%30.17 "Hg1 mi
2:54 PM24 °FSnow. Ice fog.13 mph84%30.14 "Hg1 mi
1:59 PM26 °FLight snow. Mostly cloudy.15 mph81%30.12 "Hg1 mi
1:54 PM26 °FLight snow. Ice fog.13 mph84%30.11 "Hg1 mi
Weather by CustomWeather, © 2015

See weather overviewHow to use our weather pages